Terminal Aerodrome Forecast
Issued by NWS Sioux Falls, SD

Home | Current Version | Previous Version | Graphics & Text | Print | Product List | Glossary On
Versions: 1 2 3 4 5 6 7 8 9 10 11 12 13 14 15 16 17 18 19 20 21 22 23 24 25 26 27 28 29 30 31 32 33 34 35 36
000
FTUS43 KFSD 240941 AAB
TAFSUX
TAF AMD
KSUX 240941Z 2410/2506 32008KT 4SM -RA BR BKN006
     FM241300 35016KT 4SM -RA BR OVC015
     FM241800 03014G23KT 4SM BR OVC015
     FM242100 02016G25KT 2SM -RA OVC010=

USA.gov is the U.S. government's official web portal to all federal, state and local government web resources and services.